Location: Anmer
(52.8333°N, 0.5833°E)
Time: 10:44:41
(UTC+00:00)

Cosmos 2026 Rocket - Pass Details

Date: 15 May 2026
Orbit: 939 x 999 km, 82.9° (Epoch: 5 June)

Event Time Altitude Azimuth Distance (km) Brightness Sun altitude
Rises 22:28:23 0° 347° (NNW) 3,731 8.8 -15.8°
Reaches altitude 10° 22:30:56 10° 345° (NNW) 2,780 7.7 -15.9°
Maximum altitude 22:37:15 64° 266° (W) 1,101 4.3 -16.2°
Enters shadow 22:41:40 20° 190° (S) 2,103 5.2 -16.4°
